User: anonymous   Login
Location: PFO Observatory
(45.2937°N, 66.0991°W)
Time: 08:53:12
(UTC-04:00)
Language:

Cosmos 1151 Rocket - Orbit

View from above orbital plane
View from above orbital plane
View from above satellite
View from above satellite

Ground track
Ground track

The orbit data is extracted from the following two-line orbital elements,

1 11672U 80005B   16040.86995881  .00000390  00000-0  39956-4 0  9993
2 11672  82.5163 184.9478 0017536 150.4301 209.7912 14.87741996950045
Epoch (UTC): 09 February 2016 20:52:44
Eccentricity: 0.0017536
inclination: 82.5163°
perigee height: 593 km
apogee height: 617 km
right ascension of ascending node: 184.9478°
argument of perigee: 150.4301°
revolutions per day: 14.87741996
mean anomaly at epoch: 209.7912°
orbit number at epoch: 95004

The dashed part of the orbit path shows where the satellite is in the earth's shadow,  

DLR